This demonstration page uses our WeatherBlox Daily Observations layout. Learn more.

Left ArrowRight Arrow

53.62937, 11.41316

Hourly Observations for July 7, 2016

Temp ( °F °C ) Dew Point ( °F °C ) Humidity (%) Winds ( mph kmh ) Pressure ( in mb ) Visibility ( mi km ) Precip ( " mm )
6:20 am 06:20 Mostly Sunny 50 10 48 9 94 94 W 8 13 30.09 1019 7 11 N/A
6:50 am 06:50 Mostly Sunny 52 11 50 10 94 94 WSW 9 15 30.09 1019 7 11 N/A
7:20 am 07:20 Mostly Sunny 54 12 50 10 88 88 WSW 8 13 30.09 1019 7 11 N/A
7:50 am 07:50 Mostly Sunny 55 13 50 10 82 82 W 10 17 30.12 1020 7 11 N/A
8:20 am 08:20 Partly Cloudy 55 13 52 11 88 88 W 10 17 30.12 1020 30 48 N/A
8:50 am 08:50 Partly Cloudy 57 14 50 10 77 77 W 12 19 30.12 1020 30 48 N/A
9:20 am 09:20 Mostly Cloudy 57 14 50 10 77 77 W 10 17 30.12 1020 30 48 N/A
9:50 am 09:50 Mostly Cloudy 59 15 50 10 72 72 W 10 17 30.12 1020 30 48 N/A
10:20 am 10:20 Mostly Cloudy 61 16 52 11 72 72 WSW 10 17 30.12 1020 30 48 N/A
10:50 am 10:50 Mostly Cloudy 63 17 50 10 64 64 W 12 19 30.12 1020 30 48 N/A
11:20 am 11:20 Partly Cloudy 63 17 48 9 59 59 W 12 19 30.12 1020 30 48 N/A
11:50 am 11:50 Mostly Cloudy 64 18 48 9 56 56 WSW 13 20 30.12 1020 30 48 N/A
12:20 pm 12:20 Mostly Cloudy 63 17 48 9 59 59 W 14 22 30.12 1020 30 48 N/A
12:50 pm 12:50 Mostly Cloudy 66 19 50 10 56 56 W 12 19 30.12 1020 30 48 N/A
1:20 pm 13:20 Partly Cloudy 66 19 48 9 52 52 W 12 19 30.12 1020 30 48 N/A
1:50 pm 13:50 Partly Cloudy 68 20 50 10 53 53 WSW 13 20 30.12 1020 30 48 N/A
2:20 pm 14:20 Partly Cloudy 66 19 48 9 52 52 W 12 19 30.09 1019 30 48 N/A
2:50 pm 14:50 Partly Cloudy 68 20 50 10 53 53 WSW 13 20 30.09 1019 30 48 N/A
3:20 pm 15:20 Mostly Cloudy 70 21 48 9 46 46 WSW 13 20 30.09 1019 30 48 N/A
3:50 pm 15:50 Mostly Cloudy 70 21 52 11 53 53 W 12 19 30.09 1019 30 48 N/A
4:20 pm 16:20 Mostly Cloudy 68 20 50 10 53 53 W 12 19 30.09 1019 30 48 N/A
4:50 pm 16:50 Mostly Cloudy 68 20 50 10 53 53 WSW 14 22 30.09 1019 30 48 N/A
5:20 pm 17:20 Mostly Sunny 68 20 50 10 53 53 WSW 14 22 30.09 1019 7 11 N/A
5:50 pm 17:50 Mostly Sunny 68 20 50 10 53 53 WSW 12 19 30.09 1019 7 11 N/A
6:20 pm 18:20 Mostly Sunny 68 20 50 10 53 53 W 12 19 30.09 1019 7 11 N/A
6:50 pm 18:50 Mostly Sunny 68 20 50 10 53 53 W 8 13 30.09 1019 7 11 N/A

Powered by AerisWeather